Hourly Data Report for October 10, 2016

All times are specified in Local Standard Time (LST). Add 1 hour to adjust for Daylight Saving Time where and when it is observed.

OTTAWA INTL A
ONTARIO

45°19'00.000" N
75°40'00.000" W
114.90 m
6106001
71628
YOW

Download Data

Hourly Data (October 2016)
Hourly Data Report for October 10, 2016
Temp Definition
°C
Dew Point Temp Definition
°C
Rel Hum Definition
%
Wind Dir Definition
10's deg

Wind Spd Definition
km/h
Visibility Definition
km
Stn Press Definition
kPa
Hmdx Definition


Wind Chill Definition


Weather Definition


TIME
00:00 Legend Double Dagger 4.0 -0.2 74 34 18 24.1 101.35     LegendNANA
01:00 Legend Double Dagger 2.3 -0.8 80 32 14 24.1 101.34     Clear
02:00 Legend Double Dagger 1.0 -1.2 85 31 14 24.1 101.37     LegendNANA
03:00 Legend Double Dagger 2.0 -0.6 83 32 16 24.1 101.37     LegendNANA
04:00 Legend Double Dagger 0.3 -1.3 89 31 14 24.1 101.43     Clear
05:00 Legend Double Dagger 0.7 -1.2 87 30 9 24.1 101.50     LegendNANA
06:00 Legend Double Dagger 0.6 -0.7 91 30 12 24.1 101.60     LegendNANA
07:00 Legend Double Dagger 1.1 -0.2 91 30 9 24.1 101.61     Clear
08:00 Legend Double Dagger 3.8 0.3 78 34 15 24.1 101.67     LegendNANA
09:00 Legend Double Dagger 5.7 -0.4 65 34 15 24.1 101.66     LegendNANA
10:00 Legend Double Dagger 6.1 -0.4 63 33 17 24.1 101.67     Clear
11:00 Legend Double Dagger 7.4 -0.8 56 30 13 24.1 101.62     LegendNANA
12:00 Legend Double Dagger 8.9 -0.7 51 31 7 24.1 101.55     LegendNANA
13:00 Legend Double Dagger 10.2 -0.3 48 29 19 24.1 101.52     Clear
14:00 Legend Double Dagger 11.0 0.2 47 29 15 24.1 101.48     LegendNANA
15:00 Legend Double Dagger 11.4 -0.1 45 29 12 24.1 101.47     LegendNANA
16:00 Legend Double Dagger 11.1 0.6 48 26 17 24.1 101.46     Clear
17:00 Legend Double Dagger 9.2 0.2 53 26 12 24.1 101.47     LegendNANA
18:00 Legend Double Dagger 7.5 0.0 59 25 9 24.1 101.49     LegendNANA
19:00 Legend Double Dagger 7.1 -0.1 60 21 9 24.1 101.52     Clear
20:00 Legend Double Dagger 6.6 -0.4 61 21 6 24.1 101.53     LegendNANA
21:00 Legend Double Dagger 2.5 -0.1 83 19 6 24.1 101.55     LegendNANA
22:00 Legend Double Dagger 2.2 -0.1 85 18 8 24.1 101.55     Clear
23:00 Legend Double Dagger 3.8 0.5 79 20 9 24.1 101.56     LegendNANA

Notes on Data Quality.

Legend

  • E = Estimated
  • M = Missing
  • NA = Not Available
  • ‡ = Partner data that is not subject to review by the National Climate Archives
Date modified: